K6OUA-11 Weather Reports


time (UTC)temp
F
wind
direction
speed
knots
gust
knots
rain 1hr
in
rain 24hr
in
rain mn
in
humidity
%
barometer
mb
20260505180807 65 292 4.3 7.0 0.00 0.00 0.00 56
20260505180603 65 288 2.6 7.0 0.00 0.00 0.00 56
20260505180403 65 284 7.8 7.0 0.00 0.00 0.00 56
20260505180201 65 320 2.6 5.2 0.00 0.00 0.00 55
20260505175959 66 275 5.2 5.2 0.00 0.00 0.00 55
20260505175757 66 191 0.9 8.7 0.00 0.00 0.00 56
20260505175555 65 255 2.6 8.7 0.00 0.00 0.00 56
20260505175354 65 229 1.7 8.7 0.00 0.00 0.00 56
20260505174950 65 229 3.5 6.1 0.00 0.00 0.00 53
20260505174748 66 165 2.6 6.1 0.00 0.00 0.00 53
20260505174546 66 187 3.5 6.1 0.00 0.00 0.00 55
20260505174142 65 164 2.6 7.0 0.00 0.00 0.00 59
20260505173940 64 188 1.7 7.0 0.00 0.00 0.00 58
20260505173738 64 213 1.7 6.1 0.00 0.00 0.00 58
20260505173536 65 219 3.5 6.1 0.00 0.00 0.00 57
20260505173133 65 70 0.0 7.0 0.00 0.00 0.00 60
20260505172527 64 156 2.6 4.3 0.00 0.00 0.00 59
20260505172324 64 229 1.7 4.3 0.00 0.00 0.00 60
20260505171921 63 73 0.0 0.9 0.00 0.00 0.00 61
20260505171719 63 73 0.0 5.2 0.00 0.00 0.00 62
20260505171517 62 73 0.0 5.2 0.00 0.00 0.00 63
20260505171114 62 208 0.0 7.8 0.00 0.00 0.00 63
20260505170912 61 212 0.0 7.8 0.00 0.00 0.00 63
20260505170710 61 265 0.0 5.2 0.00 0.00 0.00 63
20260505170507 61 180 0.0 5.2 0.00 0.00 0.00 63
20260505170306 61 257 1.7 6.1 0.00 0.00 0.00 64
20260505170104 61 295 5.2 6.1 0.00 0.00 0.00 63
20260505165902 61 302 4.3 6.1 0.00 0.00 0.00 64
20260505165456 61 298 3.5 7.0 0.00 0.00 0.00 66
20260505165256 60 274 3.5 6.1 0.00 0.00 0.00 67
20260505165054 60 272 0.0 6.1 0.00 0.00 0.00 67
20260505164852 60 277 5.2 6.1 0.00 0.00 0.00 67
20260505164650 60 282 0.0 7.0 0.00 0.00 0.00 67
20260505164447 60 310 4.3 7.0 0.00 0.00 0.00 67
20260505164247 59 282 2.6 7.8 0.00 0.00 0.00 68
20260505163843 59 267 5.2 7.8 0.00 0.00 0.00 68
20260505163641 59 277 2.6 6.1 0.00 0.00 0.00 69
20260505163437 59 254 1.7 6.1 0.00 0.00 0.00 69
20260505163238 58 291 4.3 7.0 0.00 0.00 0.00 67
20260505163035 59 302 3.5 7.0 0.00 0.00 0.00 67
20260505162631 59 271 3.5 3.5 0.00 0.00 0.00 68
20260505162429 59 334 2.6 3.5 0.00 0.00 0.00 70
20260505162227 60 272 0.0 6.1 0.00 0.00 0.00 70
20260505162026 60 298 1.7 6.1 0.00 0.00 0.00 70
20260505161824 60 313 0.9 6.1 0.00 0.00 0.00 69
20260505161622 60 261 0.9 4.3 0.00 0.00 0.00 69
20260505161218 60 255 0.9 1.7 0.00 0.00 0.00 72
20260505160814 59 99 0.0 3.5 0.00 0.00 0.00 74
20260505160613 59 306 0.9 3.5 0.00 0.00 0.00 73
20260505160410 59 277 0.0 3.5 0.00 0.00 0.00 73
20260505160209 59 281 0.0 3.5 0.00 0.00 0.00 72
20260505153139 58 188 0.9 1.7 0.00 0.00 0.00 76
20260505152938 58 151 0.9 1.7 0.00 0.00 0.00 76
20260505152736 58 113 0.0 1.7 0.00 0.00 0.00 78
20260505152534 58 149 0.9 1.7 0.00 0.00 0.00 79
20260505152332 57 143 0.0 1.7 0.00 0.00 0.00 80
20260505152130 57 132 0.9 2.6 0.00 0.00 0.00 81
20260505151929 57 81 0.0 2.6 0.00 0.00 0.00 80
20260505151727 57 85 0.9 0.0 0.00 0.00 0.00 80
20260505151323 56 102 0.0 0.0 0.00 0.00 0.00 81
20260505150919 56 102 0.0 0.9 0.00 0.00 0.00 81
20260505150717 56 102 0.0 2.6 0.00 0.00 0.00 80
20260505150515 56 102 0.0 2.6 0.00 0.00 0.00 80
20260505150311 56 115 0.9 1.7 0.00 0.00 0.00 79
20260505150111 56 42 0.0 1.7 0.00 0.00 0.00 79
20260505140620 52 118 0.9 4.3 0.00 0.00 0.00 87
20260505140418 52 118 0.0 4.3 0.00 0.00 0.00 87
20260505140216 52 125 1.7 3.5 0.00 0.00 0.00 87
20260505124909 51 265 0.0 0.0 0.00 0.00 0.00 89
20260505124504 51 265 0.0 0.0 0.00 0.00 0.00 89
20260505124100 51 265 0.0 0.0 0.00 0.00 0.00 89
20260505123858 51 265 0.0 0.0 0.00 0.00 0.00 89
20260505123656 51 265 0.0 0.0 0.00 0.00 0.00 89
20260505123454 51 265 0.0 0.0 0.00 0.00 0.00 90
20260505123252 51 265 0.0 0.0 0.00 0.00 0.00 90
20260505123050 51 265 0.0 0.0 0.00 0.00 0.00 89
20260505122849 51 265 0.0 0.0 0.00 0.00 0.00 90
20260505122647 51 265 0.0 0.0 0.00 0.00 0.00 90
20260505122444 51 265 0.0 0.0 0.00 0.00 0.00 89
20260505122243 51 265 0.0 0.0 0.00 0.00 0.00 90
20260505121839 51 265 0.0 0.0 0.00 0.00 0.00 90
20260505121637 51 265 0.0 0.0 0.00 0.00 0.00 90
20260505121435 51 265 0.0 0.0 0.00 0.00 0.00 90
20260505121233 51 265 0.0 0.0 0.00 0.00 0.00 90
20260505121031 51 265 0.0 0.0 0.00 0.00 0.00 90
20260505120628 51 265 0.0 0.0 0.00 0.00 0.00 89
20260505120426 51 265 0.0 0.0 0.00 0.00 0.00 89
20260505120224 51 265 0.0 0.0 0.00 0.00 0.00 89
20260505120020 51 265 0.0 0.0 0.00 0.00 0.00 89
20260505115820 51 265 0.0 0.0 0.00 0.00 0.00 89
20260505115618 51 265 0.0 0.0 0.00 0.00 0.00 89
20260505115415 51 265 0.0 0.0 0.00 0.00 0.00 90
20260505115214 51 265 0.0 0.0 0.00 0.00 0.00 90
20260505115012 51 265 0.0 0.0 0.00 0.00 0.00 89
20260505114810 51 265 0.0 0.0 0.00 0.00 0.00 89
20260505114609 51 265 0.0 0.0 0.00 0.00 0.00 89
20260505114407 51 265 0.0 0.0 0.00 0.00 0.00 89
20260505114205 51 265 0.0 0.0 0.00 0.00 0.00 89
20260505114003 51 265 0.0 0.0 0.00 0.00 0.00 89
20260505113801 51 265 0.0 0.0 0.00 0.00 0.00 89
20260505113559 51 265 0.0 0.0 0.00 0.00 0.00 89
20260505113357 51 265 0.0 0.0 0.00 0.00 0.00 89
20260505113155 51 265 0.0 0.0 0.00 0.00 0.00 89
20260505112953 51 265 0.0 0.0 0.00 0.00 0.00 89
20260505112751 51 265 0.0 0.0 0.00 0.00 0.00 89
20260505112549 51 265 0.0 0.0 0.00 0.00 0.00 89
20260505112348 52 265 0.0 0.0 0.00 0.00 0.00 89
20260505111943 52 265 0.0 0.0 0.00 0.00 0.00 88
20260505111742 52 265 0.0 0.0 0.00 0.00 0.00 88
20260505111540 52 265 0.0 0.0 0.00 0.00 0.00 88
20260505111338 52 265 0.0 0.0 0.00 0.00 0.00 89
20260505111134 52 265 0.0 0.0 0.00 0.00 0.00 89
20260505110934 52 265 0.0 0.0 0.00 0.00 0.00 88
20260505110733 52 265 0.0 0.0 0.00 0.00 0.00 88
20260505110530 52 265 0.0 0.0 0.00 0.00 0.00 88
20260505110329 52 265 0.0 0.0 0.00 0.00 0.00 88
20260505110127 52 265 0.0 0.0 0.00 0.00 0.00 87
20260505102049 53 265 0.0 0.0 0.00 0.00 0.00 86
20260505101845 53 265 0.0 0.0 0.00 0.00 0.00 86
20260505101645 54 265 0.0 0.0 0.00 0.00 0.00 86
20260505101443 53 265 0.0 0.0 0.00 0.00 0.00 86
20260505101241 54 265 0.0 0.0 0.00 0.00 0.00 86
20260505101039 53 265 0.0 0.0 0.00 0.00 0.00 86
20260505100837 54 265 0.0 0.0 0.00 0.00 0.00 86
20260505100635 54 265 0.0 0.0 0.00 0.00 0.00 86
20260505100433 54 265 0.0 0.0 0.00 0.00 0.00 86
20260505100231 54 265 0.0 0.0 0.00 0.00 0.00 86
20260505100030 54 265 0.0 0.0 0.00 0.00 0.00 86
20260505095827 54 265 0.0 0.0 0.00 0.00 0.00 86
20260505095626 54 265 0.0 0.0 0.00 0.00 0.00 86
20260505095424 54 265 0.0 0.0 0.00 0.00 0.00 86
20260505095222 54 265 0.0 0.0 0.00 0.00 0.00 86
20260505095018 54 265 0.0 0.0 0.00 0.00 0.00 86
20260505094818 54 265 0.0 0.0 0.00 0.00 0.00 86
20260505094412 54 265 0.0 0.0 0.00 0.00 0.00 86
20260505094212 54 265 0.0 0.0 0.00 0.00 0.00 86
20260505094010 54 265 0.0 0.0 0.00 0.00 0.00 86
20260505093808 54 265 0.0 0.0 0.00 0.00 0.00 86
20260505093607 54 265 0.0 0.0 0.00 0.00 0.00 86
20260505093405 54 265 0.0 0.0 0.00 0.00 0.00 86
20260505093201 54 265 0.0 0.0 0.00 0.00 0.00 86
20260505093001 54 265 0.0 0.0 0.00 0.00 0.00 85
20260505092759 54 265 0.0 0.0 0.00 0.00 0.00 85
20260505092557 55 265 0.0 0.0 0.00 0.00 0.00 85
20260505092355 54 265 0.0 0.0 0.00 0.00 0.00 85
20260505092153 55 265 0.0 0.0 0.00 0.00 0.00 85
20260505091951 55 265 0.0 0.0 0.00 0.00 0.00 85
20260505091749 55 265 0.0 0.0 0.00 0.00 0.00 85
20260505091548 55 265 0.0 0.0 0.00 0.00 0.00 85
20260505091346 55 265 0.0 0.0 0.00 0.00 0.00 85
20260505091143 55 265 0.0 0.0 0.00 0.00 0.00 85
20260505090738 55 265 0.0 0.0 0.00 0.00 0.00 85
20260505090538 55 265 0.0 0.0 0.00 0.00 0.00 85
20260505090336 55 265 0.0 0.0 0.00 0.00 0.00 85
20260505090134 55 265 0.0 0.0 0.00 0.00 0.00 85
20260505085932 55 265 0.0 0.0 0.00 0.00 0.00 86
20260505085730 55 265 0.0 0.0 0.00 0.00 0.00 86
20260505085528 55 265 0.0 0.0 0.00 0.00 0.00 86
20260505085326 55 265 0.0 0.0 0.00 0.00 0.00 86
20260505085125 55 265 0.0 0.0 0.00 0.00 0.00 86
20260505084923 55 265 0.0 0.0 0.00 0.00 0.00 86
20260505084721 55 265 0.0 0.0 0.00 0.00 0.00 86
20260505084519 55 265 0.0 0.0 0.00 0.00 0.00 85
20260505084317 55 265 0.0 0.0 0.00 0.00 0.00 85
20260505084115 55 265 0.0 0.0 0.00 0.00 0.00 85
20260505083913 55 265 0.0 0.0 0.00 0.00 0.00 85
20260505083711 55 265 0.0 0.0 0.00 0.00 0.00 85
20260505083509 55 265 0.0 0.0 0.00 0.00 0.00 85
20260505083307 55 265 0.0 0.0 0.00 0.00 0.00 85
20260505083105 55 265 0.0 0.0 0.00 0.00 0.00 85
20260505082904 55 265 0.0 0.0 0.00 0.00 0.00 85
20260505082702 55 265 0.0 0.0 0.00 0.00 0.00 85
20260505082500 55 265 0.0 0.0 0.00 0.00 0.00 85
20260505082258 55 265 0.0 0.0 0.00 0.00 0.00 85
20260505082056 55 265 0.0 0.0 0.00 0.00 0.00 85
20260505081854 55 265 0.0 0.0 0.00 0.00 0.00 85
20260505081652 55 265 0.0 0.0 0.00 0.00 0.00 85
20260505081448 55 265 0.0 0.0 0.00 0.00 0.00 85
20260505081248 55 265 0.0 0.0 0.00 0.00 0.00 85
20260505081045 55 265 0.0 0.0 0.00 0.00 0.00 85
20260505080845 55 265 0.0 0.0 0.00 0.00 0.00 85
20260505080643 55 265 0.0 0.0 0.00 0.00 0.00 85
20260505080441 55 265 0.0 0.0 0.00 0.00 0.00 85
20260505080238 55 265 0.0 0.0 0.00 0.00 0.00 85
20260505080035 55 265 0.0 0.0 0.00 0.00 0.00 85
20260505075835 55 265 0.0 0.0 0.00 0.00 0.00 85
20260505075633 55 265 0.0 0.0 0.00 0.00 0.00 85
20260505075433 55 265 0.0 0.0 0.00 0.00 0.00 85
20260505075027 55 265 0.0 0.0 0.00 0.00 0.00 85
20260505074825 55 265 0.0 0.0 0.00 0.00 0.00 85
20260505074624 55 265 0.0 0.0 0.00 0.00 0.00 84
20260505074422 55 265 0.0 0.0 0.00 0.00 0.00 84
20260505074220 55 265 0.0 0.0 0.00 0.00 0.00 84
20260505074018 55 265 0.0 0.0 0.00 0.00 0.00 84
20260505073816 55 265 0.0 0.0 0.00 0.00 0.00 84
20260505073614 55 265 0.0 0.0 0.00 0.00 0.00 84
20260505073412 55 265 0.0 0.0 0.00 0.00 0.00 84
20260505073210 55 265 0.0 0.0 0.00 0.00 0.00 84
20260505073008 55 265 0.0 0.0 0.00 0.00 0.00 84
20260505072806 55 265 0.0 0.0 0.00 0.00 0.00 84
20260505072604 55 265 0.0 0.0 0.00 0.00 0.00 84
20260505072403 55 265 0.0 0.0 0.00 0.00 0.00 84
20260505072200 55 265 0.0 0.0 0.00 0.00 0.00 84
20260505071959 55 265 0.0 0.0 0.00 0.00 0.00 84
20260505071756 55 265 0.0 0.0 0.00 0.00 0.00 84
20260505071554 55 265 0.0 0.0 0.00 0.00 0.00 84
20260505071353 55 265 0.0 0.0 0.00 0.00 0.00 84
20260505071151 55 265 0.0 0.0 0.00 0.00 0.00 83
20260505070947 55 265 0.0 0.0 0.00 0.00 0.00 83
20260505070747 55 265 0.0 0.0 0.00 0.00 0.00 83
20260505070343 55 265 0.0 0.0 0.00 0.00 0.00 83
20260505070142 55 265 0.0 0.0 0.00 0.00 0.00 83
20260505065940 55 265 0.0 0.0 0.00 0.00 0.00 83
20260505065738 55 265 0.0 0.0 0.00 0.00 0.00 83
20260505065537 55 265 0.0 0.0 0.00 0.00 0.00 83
20260505065132 55 265 0.0 0.0 0.00 0.00 0.00 82
20260505064930 55 265 0.0 0.0 0.00 0.00 0.00 82
20260505064728 56 265 0.0 0.0 0.00 0.00 0.00 82
20260505064526 56 265 0.0 0.0 0.00 0.00 0.00 82
20260505064324 56 265 0.0 0.0 0.00 0.00 0.00 82
20260505064122 56 265 0.0 0.0 0.00 0.00 0.00 82
20260505063921 56 265 0.0 0.0 0.00 0.00 0.00 82
20260505063719 56 265 0.0 0.9 0.00 0.00 0.00 82
20260505063517 56 265 0.0 0.9 0.00 0.00 0.00 82
20260505063314 56 265 0.0 0.0 0.00 0.00 0.00 82
20260505062911 56 261 0.0 0.0 0.00 0.00 0.00 82
20260505062709 56 261 0.0 1.7 0.00 0.00 0.00 82
20260505062507 56 261 0.0 1.7 0.00 0.00 0.00 82
20260505062305 56 261 0.0 1.7 0.00 0.00 0.00 82
20260505062103 56 261 0.0 1.7 0.00 0.00 0.00 82
20260505061900 56 272 0.9 1.7 0.00 0.00 0.00 82
20260505061700 56 239 0.0 1.7 0.00 0.00 0.00 82
20260505061256 56 270 0.0 0.0 0.00 0.00 0.00 82
20260505061054 56 281 0.9 0.0 0.00 0.00 0.00 82
20260505060852 56 244 0.0 0.0 0.00 0.00 0.00 82
20260505060650 56 244 0.0 0.0 0.00 0.00 0.00 81
20260505060448 56 244 0.0 0.0 0.00 0.00 0.00 81
20260505060246 56 244 0.0 0.0 0.00 0.00 0.00 81
20260505060045 56 244 0.0 0.0 0.00 0.00 0.00 81
20260505055841 56 244 0.0 0.0 0.00 0.00 0.00 81
20260505055641 56 244 0.0 0.0 0.00 0.00 0.00 81
20260505055439 56 244 0.0 0.0 0.00 0.00 0.00 81
20260505055237 56 244 0.0 0.0 0.00 0.00 0.00 81
20260505055034 56 244 0.0 0.0 0.00 0.00 0.00 81
20260505054833 56 244 0.0 0.0 0.00 0.00 0.00 81
20260505054631 56 244 0.0 1.7 0.00 0.00 0.00 81
20260505054429 56 244 0.0 1.7 0.00 0.00 0.00 80
20260505054227 56 217 0.0 3.5 0.00 0.00 0.00 80
20260505054025 56 248 0.0 3.5 0.00 0.00 0.00 80
20260505053824 56 244 0.0 3.5 0.00 0.00 0.00 80
20260505053621 56 267 0.9 6.1 0.00 0.00 0.00 80
20260505053420 56 262 1.7 6.1 0.00 0.00 0.00 80
20260505053218 56 270 4.3 2.6 0.00 0.00 0.00 80
20260505053016 56 288 4.3 2.6 0.00 0.00 0.00 80
20260505052813 56 267 0.0 5.2 0.00 0.00 0.00 81
20260505052612 56 255 0.9 5.2 0.00 0.00 0.00 81
20260505052410 56 274 0.0 5.2 0.00 0.00 0.00 81
20260505052209 56 298 1.7 5.2 0.00 0.00 0.00 81
20260505051804 57 285 3.5 2.6 0.00 0.00 0.00 83
20260505051601 57 277 0.0 2.6 0.00 0.00 0.00 83
20260505051401 57 277 0.0 2.6 0.00 0.00 0.00 84
20260505051159 57 281 1.7 3.5 0.00 0.00 0.00 84
20260505050957 57 262 0.0 3.5 0.00 0.00 0.00 84
20260505050753 57 271 0.0 2.6 0.00 0.00 0.00 84
20260505050553 57 272 0.9 2.6 0.00 0.00 0.00 84
20260505041707 57 199 0.0 4.3 0.00 0.00 0.00 80
20260505041507 57 202 0.0 4.3 0.00 0.00 0.00 80
20260505040900 57 265 3.5 4.3 0.00 0.00 0.00 79
20260505040658 57 248 0.9 4.3 0.00 0.00 0.00 79
20260505040254 57 239 0.0 3.5 0.00 0.00 0.00 79
20260505040052 57 229 0.0 3.5 0.00 0.00 0.00 79
20260505035648 57 237 0.9 7.0 0.00 0.00 0.00 80
20260505035446 57 270 2.6 7.0 0.00 0.00 0.00 80
20260505035245 57 284 0.9 7.0 0.00 0.00 0.00 80
20260505035043 57 264 5.2 7.0 0.00 0.00 0.00 79
20260505034841 57 115 1.7 7.0 0.00 0.00 0.00 79
20260505034639 57 239 0.9 11.3 0.00 0.00 0.00 80
20260505034437 57 277 1.7 11.3 0.00 0.00 0.00 80
20260505034235 57 254 2.6 8.7 0.00 0.00 0.00 81
20260505034033 57 229 1.7 8.7 0.00 0.00 0.00 83
20260505033830 57 296 6.1 8.7 0.00 0.00 0.00 83
20260505033627 57 265 4.3 5.2 0.00 0.00 0.00 83
20260505033427 58 293 3.5 5.2 0.00 0.00 0.00 83
20260505033224 57 272 4.3 6.1 0.00 0.00 0.00 83
20260505033024 57 268 4.3 6.1 0.00 0.00 0.00 82
20260505032821 57 272 3.5 7.0 0.00 0.00 0.00 82
20260505032620 57 281 3.5 7.0 0.00 0.00 0.00 82
20260505032418 57 264 1.7 7.0 0.00 0.00 0.00 82
20260505032215 57 270 3.5 7.8 0.00 0.00 0.00 82
20260505032014 57 271 7.0 7.8 0.00 0.00 0.00 82
20260505031812 57 248 5.2 7.8 0.00 0.00 0.00 82
20260505031408 57 250 6.1 7.8 0.00 0.00 0.00 81
20260505031207 57 284 4.3 9.6 0.00 0.00 0.00 81
20260505030803 57 250 4.3 9.6 0.00 0.00 0.00 80
20260505030601 57 255 4.3 9.6 0.00 0.00 0.00 80
20260505030359 57 260 7.8 9.6 0.00 0.00 0.00 79
20260505030155 58 270 4.3 7.8 0.00 0.00 0.00 78
20260505025955 58 272 3.5 7.8 0.00 0.00 0.00 79
20260505025753 58 284 5.2 8.7 0.00 0.00 0.00 78
20260505025551 58 257 4.3 8.7 0.00 0.00 0.00 78
20260505025349 58 277 4.3 8.7 0.00 0.00 0.00 78
20260505025147 58 262 4.3 9.6 0.00 0.00 0.00 78
20260505024945 58 272 3.5 9.6 0.00 0.00 0.00 77
20260505024742 58 248 3.5 9.6 0.00 0.00 0.00 77
20260505024540 58 243 7.8 9.6 0.00 0.00 0.00 78
20260505024138 58 284 5.2 11.3 0.00 0.00 0.00 78
20260505023934 58 271 9.6 11.3 0.00 0.00 0.00 78
20260505023732 58 255 6.1 11.3 0.00 0.00 0.00 78
20260505023530 58 229 8.7 11.3 0.00 0.00 0.00 78
20260505023128 59 258 6.1 11.3 0.00 0.00 0.00 77
20260505022926 59 275 7.0 11.3 0.00 0.00 0.00 77
20260505022725 59 258 6.1 13.0 0.00 0.00 0.00 77
20260505022522 59 260 4.3 13.0 0.00 0.00 0.00 78
20260505022320 59 282 2.6 10.4 0.00 0.00 0.00 78
20260505021513 59 274 6.1 10.4 0.00 0.00 0.00 77
20260505021311 59 262 7.0 9.6 0.00 0.00 0.00 77
20260505020907 60 241 5.2 9.6 0.00 0.00 0.00 76
20260505020705 60 116 0.9 7.8 0.00 0.00 0.00 75
20260505020504 60 227 3.5 7.8 0.00 0.00 0.00 75
20260505020100 60 98 2.6 11.3 0.00 0.00 0.00 75
20260505015858 60 262 2.6 11.3 0.00 0.00 0.00 75
20260505015454 60 195 0.9 5.2 0.00 0.00 0.00 76
20260505015253 60 226 0.9 6.1 0.00 0.00 0.00 76
20260505015050 60 195 0.0 6.1 0.00 0.00 0.00 76
20260505014849 60 229 5.2 6.1 0.00 0.00 0.00 76
20260505014647 60 248 3.5 3.5 0.00 0.00 0.00 76
20260505014444 60 268 0.0 3.5 0.00 0.00 0.00 75
20260505014243 60 222 0.9 7.8 0.00 0.00 0.00 75
20260505013839 60 288 0.9 7.8 0.00 0.00 0.00 76
20260505013637 60 286 2.6 7.8 0.00 0.00 0.00 76
20260505013435 60 257 3.5 7.8 0.00 0.00 0.00 76
20260505013233 60 268 1.7 7.8 0.00 0.00 0.00 76
20260505013031 60 250 4.3 7.8 0.00 0.00 0.00 76
20260505012829 60 278 4.3 7.8 0.00 0.00 0.00 76
20260505012628 60 267 5.2 11.3 0.00 0.00 0.00 76
20260505012426 60 261 6.1 11.3 0.00 0.00 0.00 76
20260505012022 60 267 9.6 11.3 0.00 0.00 0.00 75
20260505011820 60 262 6.1 7.0 0.00 0.00 0.00 74
20260505011618 60 268 7.0 7.0 0.00 0.00 0.00 74
20260505011416 61 254 7.8 7.0 0.00 0.00 0.00 72
20260505011214 61 116 0.0 8.7 0.00 0.00 0.00 73
20260505011011 61 220 0.9 8.7 0.00 0.00 0.00 73
20260505010811 61 195 0.0 7.8 0.00 0.00 0.00 73
20260505010608 61 264 1.7 7.8 0.00 0.00 0.00 74
20260505010407 61 260 7.0 7.8 0.00 0.00 0.00 73
20260505010203 61 260 5.2 11.3 0.00 0.00 0.00 72
20260505010003 61 151 2.6 11.3 0.00 0.00 0.00 72
20260505005801 61 253 5.2 12.2 0.00 0.00 0.00 71
20260505005559 61 246 7.8 12.2 0.00 0.00 0.00 70
20260505005357 61 253 4.3 12.2 0.00 0.00 0.00 69
20260505004550 62 262 8.7 12.2 0.00 0.00 0.00 67
20260505004347 62 255 8.7 12.2 0.00 0.00 0.00 67
20260505004146 62 206 2.6 11.3 0.00 0.00 0.00 67
20260505003944 62 174 6.1 11.3 0.00 0.00 0.00 67
20260505003742 62 264 7.0 13.9 0.00 0.00 0.00 66
20260505003538 62 237 1.7 13.9 0.00 0.00 0.00 66
20260505003339 62 157 6.1 13.9 0.00 0.00 0.00 66
20260505003134 62 293 7.0 11.3 0.00 0.00 0.00 66
20260505002934 62 277 6.1 11.3 0.00 0.00 0.00 65
20260505002731 63 258 7.0 13.0 0.00 0.00 0.00 66
20260505002530 63 255 1.7 13.0 0.00 0.00 0.00 65
20260505002328 63 262 7.0 13.0 0.00 0.00 0.00 65
20260505002127 62 250 7.8 12.2 0.00 0.00 0.00 64
20260505001925 63 260 6.1 12.2 0.00 0.00 0.00 63
20260505001519 64 244 7.8 12.2 0.00 0.00 0.00 62
20260505001319 64 306 1.7 10.4 0.00 0.00 0.00 62
20260505001117 64 261 7.0 10.4 0.00 0.00 0.00 63
20260505000913 64 260 7.0 10.4 0.00 0.00 0.00 60
20260505000510 65 322 0.9 8.7 0.00 0.00 0.00 59
20260505000310 65 261 7.0 13.0 0.00 0.00 0.00 58
20260505000107 65 254 4.3 13.0 0.00 0.00 0.00 59
20260504235906 65 295 1.7 13.0 0.00 0.00 0.00 60
20260504235704 64 264 7.8 13.9 0.00 0.00 0.00 60
20260504235502 64 255 7.8 13.9 0.00 0.00 0.00 60
20260504235058 64 262 9.6 13.9 0.00 0.00 0.00 58
20260504234856 64 262 9.6 13.9 0.00 0.00 0.00 58
20260504234654 65 271 1.7 10.4 0.00 0.00 0.00 60
20260504234457 65 298 2.6 10.4 0.00 0.00 0.00 60
20260504234250 64 267 5.2 13.0 0.00 0.00 0.00 60
20260504234048 65 261 5.2 13.0 0.00 0.00 0.00 60
20260504233847 64 286 2.6 13.0 0.00 0.00 0.00 59
20260504233645 65 258 11.3 11.3 0.00 0.00 0.00 60
20260504233443 65 202 0.9 11.3 0.00 0.00 0.00 61
20260504233241 65 261 2.6 10.4 0.00 0.00 0.00 60
20260504232837 64 265 6.1 10.4 0.00 0.00 0.00 59
20260504232635 64 264 10.4 12.2 0.00 0.00 0.00 61
20260504232231 64 257 10.4 16.5 0.00 0.00 0.00 59
20260504232030 64 257 7.0 16.5 0.00 0.00 0.00 58
20260504231828 64 261 7.0 16.5 0.00 0.00 0.00 58
20260504231626 64 261 6.1 13.9 0.00 0.00 0.00 59
20260504231422 64 264 10.4 13.9 0.00 0.00 0.00 58
20260504231222 64 257 7.0 12.2 0.00 0.00 0.00 58
20260504231020 64 243 9.6 12.2 0.00 0.00 0.00 58
20260504230818 66 255 7.8 8.7 0.00 0.00 0.00 57
20260504230614 65 161 1.7 8.7 0.00 0.00 0.00 58
20260504230414 66 258 4.3 8.7 0.00 0.00 0.00 57
20260504230212 66 217 0.9 14.8 0.00 0.00 0.00 57
20260504230010 66 209 1.7 14.8 0.00 0.00 0.00 58
20260504225808 66 250 6.1 14.8 0.00 0.00 0.00 57
20260504225607 66 226 8.7 14.8 0.00 0.00 0.00 56
20260504225405 66 260 3.5 14.8 0.00 0.00 0.00 56
20260504225203 66 215 1.7 14.8 0.00 0.00 0.00 57
20260504225001 66 354 1.7 14.8 0.00 0.00 0.00 57
20260504224759 66 261 8.7 10.4 0.00 0.00 0.00 58
20260504224558 66 260 2.6 10.4 0.00 0.00 0.00 57
20260504224356 66 303 2.6 10.4 0.00 0.00 0.00 57
20260504224154 66 246 6.1 7.8 0.00 0.00 0.00 57
20260504223548 66 236 1.7 8.7 0.00 0.00 0.00 58
20260504223346 66 299 2.6 8.7 0.00 0.00 0.00 56
20260504223144 66 184 5.2 11.3 0.00 0.00 0.00 57
20260504222940 67 254 1.7 11.3 0.00 0.00 0.00 54
20260504222740 66 253 5.2 10.4 0.00 0.00 0.00 56
20260504222538 67 278 4.3 10.4 0.00 0.00 0.00 56
20260504222336 67 289 7.0 10.4 0.00 0.00 0.00 55
20260504222134 67 229 3.5 15.6 0.00 0.00 0.00 54
20260504221731 66 313 0.9 13.9 0.00 0.00 0.00 55
20260504221529 66 247 7.8 13.9 0.00 0.00 0.00 56
20260504221327 66 258 6.1 13.9 0.00 0.00 0.00 56
20260504221127 66 157 2.6 13.9 0.00 0.00 0.00 55
20260504220721 66 243 12.2 21.7 0.00 0.00 0.00 55
20260504220519 66 261 3.5 21.7 0.00 0.00 0.00 53
20260504220318 65 279 14.8 15.6 0.00 0.00 0.00 55
20260504215914 66 250 12.2 15.6 0.00 0.00 0.00 53
20260504215711 67 262 4.3 19.1 0.00 0.00 0.00 52
20260504215509 66 281 5.2 19.1 0.00 0.00 0.00 53
20260504215308 66 258 11.3 16.5 0.00 0.00 0.00 54
20260504215106 66 240 4.3 16.5 0.00 0.00 0.00 56
20260504214904 65 255 14.8 16.5 0.00 0.00 0.00 54
20260504214702 66 254 16.5 19.1 0.00 0.00 0.00 54
20260504214500 66 264 12.2 19.1 0.00 0.00 0.00 53
20260504214258 66 262 12.2 19.1 0.00 0.00 0.00 53
20260504214056 65 265 12.2 19.1 0.00 0.00 0.00 52
20260504213855 66 222 8.7 19.1 0.00 0.00 0.00 56
20260504213653 66 247 10.4 20.9 0.00 0.00 0.00 55
20260504213249 66 243 11.3 18.2 0.00 0.00 0.00 55
20260504213047 66 264 3.5 18.2 0.00 0.00 0.00 53
20260504212845 66 250 7.8 18.2 0.00 0.00 0.00 53
20260504212643 66 279 12.2 18.2 0.00 0.00 0.00 53
20260504212441 66 267 15.6 18.2 0.00 0.00 0.00 52
20260504212239 66 247 7.8 14.8 0.00 0.00 0.00 51
20260504212038 66 257 12.2 14.8 0.00 0.00 0.00 51
20260504211836 67 264 7.0 14.8 0.00 0.00 0.00 50
20260504211432 66 247 11.3 18.2 0.00 0.00 0.00 50
20260504211230 66 291 11.3 21.7 0.00 0.00 0.00 50
20260504211028 67 248 15.6 21.7 0.00 0.00 0.00 52
20260504210826 66 268 13.9 21.7 0.00 0.00 0.00 52
20260504210624 66 258 11.3 18.2 0.00 0.00 0.00 50
20260504210423 66 292 6.1 18.2 0.00 0.00 0.00 50
20260504210221 66 247 10.4 20.0 0.00 0.00 0.00 51
20260504210019 67 243 7.8 20.0 0.00 0.00 0.00 50
20260504205817 66 246 12.2 18.2 0.00 0.00 0.00 50
20260504205413 66 261 13.0 18.2 0.00 0.00 0.00 48
20260504205009 67 254 8.7 19.1 0.00 0.00 0.00 49
20260504204808 67 260 14.8 15.6 0.00 0.00 0.00 49
20260504204606 67 272 7.8 15.6 0.00 0.00 0.00 48
20260504204402 67 271 7.0 15.6 0.00 0.00 0.00 49
20260504204203 67 254 12.2 17.4 0.00 0.00 0.00 51
20260504203352 67 272 14.8 16.5 0.00 0.00 0.00 44
20260504203152 67 255 11.3 17.4 0.00 0.00 0.00 45
20260504202950 67 272 7.0 17.4 0.00 0.00 0.00 48
20260504202748 67 194 0.9 16.5 0.00 0.00 0.00 49
20260504202547 67 243 7.0 16.5 0.00 0.00 0.00 48
20260504202345 67 254 11.3 16.5 0.00 0.00 0.00 48
20260504202143 66 248 7.8 19.1 0.00 0.00 0.00 49
20260504201941 66 281 7.8 19.1 0.00 0.00 0.00 48
20260504201738 66 267 7.8 15.6 0.00 0.00 0.00 48
20260504201540 66 284 9.6 15.6 0.00 0.00 0.00 46
20260504201133 66 271 7.0 16.5 0.00 0.00 0.00 48
20260504200931 66 260 8.7 16.5 0.00 0.00 0.00 51
20260504200729 66 267 13.0 12.2 0.00 0.00 0.00 50
20260504200527 67 262 11.3 12.2 0.00 0.00 0.00 48
20260504200325 67 282 7.0 12.2 0.00 0.00 0.00 49
20260504200123 66 267 9.6 18.2 0.00 0.00 0.00 50
20260504195921 66 255 7.0 18.2 0.00 0.00 0.00 49
20260504195720 66 255 9.6 13.9 0.00 0.00 0.00 50
20260504195517 66 262 10.4 13.9 0.00 0.00 0.00 49
20260504195316 67 264 10.4 14.8 0.00 0.00 0.00 50
20260504194710 67 274 6.1 11.3 0.00 0.00 0.00 47
20260504194509 67 268 9.6 11.3 0.00 0.00 0.00 48
20260504194305 67 247 5.2 13.0 0.00 0.00 0.00 49
20260504194105 67 185 0.9 13.0 0.00 0.00 0.00 49
20260504193903 67 267 3.5 13.0 0.00 0.00 0.00 52
20260504193701 66 258 8.7 12.2 0.00 0.00 0.00 50
20260504193457 66 246 11.3 12.2 0.00 0.00 0.00 49
20260504193257 67 258 11.3 12.2 0.00 0.00 0.00 49
20260504193053 66 260 6.1 12.2 0.00 0.00 0.00 49
20260504192853 66 278 5.2 12.2 0.00 0.00 0.00 49
20260504192652 66 275 7.8 17.4 0.00 0.00 0.00 49
20260504192248 65 270 12.2 15.6 0.00 0.00 0.00 49
20260504192046 65 262 8.7 15.6 0.00 0.00 0.00 50
20260504191846 66 262 7.0 15.6 0.00 0.00 0.00 51
20260504191440 65 281 15.6 13.9 0.00 0.00 0.00 51
20260504191240 65 278 9.6 15.6 0.00 0.00 0.00 49
20260504191036 65 250 5.2 15.6 0.00 0.00 0.00 50
20260504190834 65 246 9.6 15.6 0.00 0.00 0.00 50
20260504190632 65 254 10.4 15.6 0.00 0.00 0.00 50
20260504190229 65 247 10.4 10.4 0.00 0.00 0.00 49
20260504190027 66 271 7.8 10.4 0.00 0.00 0.00 49
20260504185825 66 282 7.8 10.4 0.00 0.00 0.00 53
20260504185623 65 272 5.2 12.2 0.00 0.00 0.00 52
20260504185421 66 272 7.0 12.2 0.00 0.00 0.00 53
20260504185219 65 306 0.9 11.3 0.00 0.00 0.00 53
20260504184816 66 261 4.3 7.0 0.00 0.00 0.00 50
20260504184614 66 233 0.9 7.0 0.00 0.00 0.00 52
20260504184410 66 239 1.7 7.0 0.00 0.00 0.00 51
20260504184210 66 258 1.7 8.7 0.00 0.00 0.00 53
20260504184006 66 187 2.6 8.7 0.00 0.00 0.00 53
20260504183804 66 188 7.0 9.6 0.00 0.00 0.00 52
20260504183604 66 277 1.7 9.6 0.00 0.00 0.00 53
20260504183402 65 210 0.9 9.6 0.00 0.00 0.00 55
20260504183200 65 225 4.3 10.4 0.00 0.00 0.00 57
20260504182958 65 22 0.9 10.4 0.00 0.00 0.00 55
20260504182756 64 260 7.0 10.4 0.00 0.00 0.00 55
20260504182554 64 206 8.7 10.4 0.00 0.00 0.00 56
20260504182353 64 271 7.0 10.4 0.00 0.00 0.00 52
20260504182149 64 262 5.2 10.4 0.00 0.00 0.00 52
20260504181949 65 296 1.7 10.4 0.00 0.00 0.00 55
20260504181745 65 222 6.1 7.8 0.00 0.00 0.00 54
20260504181545 65 262 5.2 7.8 0.00 0.00 0.00 53
20260504181343 65 265 6.1 7.8 0.00 0.00 0.00 54
20260504181141 65 261 1.7 8.7 0.00 0.00 0.00 56